Location: Hope
(40.9110°N, 74.9680°W)
Time: 07:33:40
(UTC-05:00)

Tiangong 2 - Pass Details

Date: 24 January 2019
Orbit: 381 x 390 km, 42.8° (Epoch: 19 February)

Event Time Altitude Azimuth Distance (km) Brightness Sun altitude
Exits shadow 05:21:40 48° 63° (ENE) 513 1.9 -21.8°
Drops below altitude 10° 05:24:11 10° 90° (E) 1,411 5.1 -21.3°
Sets 05:26:16 0° 93° (E) 2,266 6.5 -20.9°
